CAPE
259 226 250 45 0 0 0 4 6 0 6 27 72 131 213 382 416 260 288 778 830 978 1536 1298 1767 1706 1638 1746 1713 1777 1658 1751 1674 1579 1447 1726 1628 1613 1653 1515 1632 1609 1358
252 247 171 47 167 0 0 4 7 31 50 95 258 515 364 520 445 421 494 666 996 870 1016 1190 1859 1928 1681 1727 1536 1438 1568 1509 1528 1483 1405 1314 1364 1501 1609 1618 1617 1654 1600
362 266 227 271 131 58 119 47 33 10 11 0 66 403 470 480 466 419 306 616 726 1102 1402 1529 1484 1216 1519 1202 1060 914 804 701 708 1030 946 1276 1306 1193 1327 1455 1482 1494 1438
552 597 527 512 384 279 166 139 73 55 4 0 27 129 212 375 475 241 3 259 236 568 1047 951 810 650 1295 1133 943 747 735 645 624 615 779 861 669 865 1170 1031 1239 1319 1396
608 503 505 658 423 218 259 187 57 96 90 217 109 47 83 212 471 267 414 249 146 108 262 538 659 474 1209 1223 1013 800 923 673 643 615 760 817 721 947 1092 1109 947 1075 1235
508 277 262 465 545 526 246 136 154 88 131 204 167 12 0 31 228 258 144 252 28 0 41 338 688 573 881 1303 1000 1011 663 772 453 656 542 516 652 672 724 959 962 876 1090
387 277 175 460 704 434 247 29 336 186 15 49 0 0 0 0 86 187 17 0 0 0 220 355 548 667 754 775 609 245 1019 562 369 455 507 576 477 750 505 621 639 832 808
709 476 423 566 790 654 555 538 504 0 0 0 2 0 0 0 0 0 0 136 168 453 522 455 203 713 739 499 177 369 713 547 592 581 462 508 453 526 391 436 514 781 814
726 559 856 948 743 425 224 166 321 99 39 29 30 121 7 0 0 0 0 140 290 368 589 783 711 719 608 368 80 342 552 755 672 624 522 217 268 418 523 510 535 504 570
876 855 1032 911 652 391 77 126 709 216 32 37 68 19 30 0 0 35 110 284 289 279 338 557 747 613 557 325 177 77 364 619 560 291 386 265 221 388 505 571 511 506 556
381 596 854 939 718 526 265 82 108 297 400 159 105 149 138 0 0 51 115 280 463 277 277 365 456 480 423 240 4 0 113 256 462 186 327 230 205 456 683 559 563 619 621
456 804 992 702 670 318 191 383 6 488 372 352 511 509 438 0 0 4 73 201 182 271 389 354 312 275 307 251 0 0 0 109 221 362 373 505 627 640 855 841 817 737 675
724 777 925 918 711 280 29 0 328 605 803 783 420 440 265 226 35 0 0 203 211 176 288 264 315 273 185 101 0 0 0 0 22 186 325 420 515 629 760 876 950 942 924
510 555 714 928 896 519 36 0 163 791 684 880 799 661 400 201 186 204 65 233 133 30 185 177 196 231 120 0 0 0 0 0 0 0 10 129 281 363 464 583 671 621 630
348 345 362 517 935 609 563 139 718 817 895 749 628 711 625 93 30 88 445 316 75 3 67 158 288 180 14 0 0 0 0 0 0 0 0 0 0 11 155 305 395 433 441
420 346 293 453 652 875 733 1005 1055 904 881 737 815 598 633 510 468 433 515 563 479 212 104 77 122 254 72 5 11 0 0 0 0 0 0 0 0 0 0 0 0 91 182
653 468 257 155 563 598 636 1161 1214 998 926 663 753 577 646 661 568 606 554 495 392 160 90 101 67 293 88 47 4 2 1 0 1 0 0 0 0 0 0 0 0 0 0
700 454 76 181 123 382 716 1091 966 946 576 524 592 692 450 765 710 678 444 566 375 91 130 131 42 352 206 64 4 3 1 1 0 1 0 0 0 0 0 0 0 0 0
708 399 147 195 0 75 918 866 997 908 863 570 449 115 221 654 735 499 484 281 496 492 164 169 25 446 276 85 1 1 0 1 2 2 1 1 1 1 0 0 0 0 0
771 555 440 472 504 405 782 940 1009 909 864 678 274 274 626 653 483 605 548 448 371 346 282 253 149 194 220 33 1 0 1 3 4 3 2 1 1 3 1 1 0 0 0
785 650 553 526 554 608 740 936 1000 939 896 772 705 660 620 574 495 521 602 481 388 317 185 185 164 145 155 52 14 2 2 2 2 3 0 0 0 0 3 3 1 1 3
599 532 524 598 706 581 803 868 1001 992 830 725 637 638 337 256 148 99 147 215 338 274 165 113 117 141 114 76 15 0 0 1 1 1 0 0 0 1 3 5 7 6 7
158 102 329 517 756 644 757 848 816 786 845 757 568 426 247 50 0 0 0 0 0 0 29 27 32 34 21 13 9 14 0 0 1 1 0 2 2 2 2 3 3 1 0
0 2 38 145 744 735 532 552 565 638 629 706 634 463 345 43 0 0 0 0 0 0 0 0 14 0 0 0 9 25 6 1 2 3 0 0 3 4 2 3 3 2 0
0 0 20 39 303 280 158 129 190 369 417 438 408 472 393 153 0 0 0 0 0 0 0 0 0 0 0 0 4 12 4 0 3 6 2 2 3 3 1 2 1 0 0
0 21 7 19 159 115 24 3 53 246 270 194 63 74 134 219 0 0 0 0 0 0 0 0 0 0 0 0 2 4 0 1 1 3 1 0 4 0 3 1 2 0 0
CIN
-82 -99 -91 -143 0 0 0 -76 -204 0 -80 -181 -125 -84 -71 -69 -63 -100 -111 -77 -61 -31 -5 -8 -5 0 0 0 0 -1 0 0 0 0 0 0 0 0 0 0 0 0 -2
-93 -110 -95 -141 -127 0 -84 -129 -164 -202 -194 -144 -90 -73 -62 -67 -72 -87 -98 -90 -53 -41 -16 -8 -3 0 0 0 0 0 0 0 0 0 0 0 -1 0 0 0 0 0 0
-74 -80 -70 -70 -151 -196 -153 -201 -174 -206 -169 -14 -130 -89 -63 -70 -95 -97 -126 -97 -75 -40 -13 -8 -8 -19 0 0 0 -3 -5 -10 -11 -3 -1 -1 0 -2 0 0 0 -1 -2
-47 -48 -53 -58 -90 -128 -173 -171 -180 -138 -33 -31 -155 -153 -105 -91 -82 -111 -17 -128 -112 -77 -38 -22 -23 -39 -7 -4 -2 -1 -1 -6 -4 -11 -3 -1 -6 -3 0 -2 -1 -1 -1
-55 -48 -55 -43 -85 -127 -131 -137 -161 -157 -171 -125 -164 -193 -161 -112 -92 -107 -77 -108 -136 -128 -100 -61 -42 -45 -15 -9 -3 0 -1 -4 -3 -3 -2 -1 -4 -2 -1 -2 -4 -4 -2
-58 -69 -64 -58 -83 -86 -117 -149 -130 -198 -172 -124 -107 -183 0 -138 -138 -136 -119 -121 -47 0 -76 -82 -56 -53 -39 -12 -10 0 -2 0 -6 -3 -3 -5 -4 -6 -7 -3 -3 -6 -2
-58 -60 -68 -53 -61 -71 -106 -98 -103 -140 -189 -192 -12 0 0 0 -155 -145 -87 0 0 0 -113 -83 -59 -50 -45 -39 -44 -60 0 -4 -6 -4 -4 -2 -5 -3 -10 -7 -8 -4 -7
-41 -47 -47 -52 -45 -54 -56 -72 -76 0 0 0 -42 0 0 0 0 0 0 -150 -124 -88 -69 -57 -75 -55 -46 -65 -86 -50 -3 -4 -3 -2 -5 -4 -4 -5 -16 -11 -10 -3 -3
-44 -48 -35 -35 -50 -72 -67 -91 -79 -105 -90 -179 -181 -105 -37 0 0 0 0 -112 -76 -65 -53 -41 -50 -56 -62 -70 -94 -54 -10 -2 -2 -3 -4 -11 -8 -6 -4 -8 -8 -13 -11
-40 -30 -28 -35 -66 -93 -124 -107 -66 -113 -160 -102 -169 -119 -185 0 0 -60 -97 -70 -75 -54 -59 -61 -50 -68 -73 -80 -78 -85 -27 -1 -2 -8 -8 -10 -13 -4 -5 -12 -23 -29 -22
-64 -34 -35 -33 -57 -70 -79 -133 -111 -81 -82 -103 -103 -130 -144 0 0 -105 -40 -31 -64 -62 -68 -62 -51 -53 -84 -93 -69 0 -64 -28 -5 -14 -7 -10 -17 -5 0 -4 -22 -20 -17
-48 -38 -32 -47 -67 -83 -94 -69 -44 -74 -70 -77 -77 -82 -76 0 0 -6 -56 -42 -34 -58 -56 -60 -55 -62 -75 -93 0 0 0 -48 -22 -11 -9 -5 -4 -6 0 0 0 -4 -11
-41 -40 -37 -40 -59 -82 -109 0 -74 -51 -46 -45 -71 -66 -85 -87 -83 0 0 -42 -38 -74 -57 -92 -81 -83 -98 -106 0 0 0 0 -20 -21 -21 -15 -7 -2 0 -1 0 0 0
-36 -45 -44 -44 -47 -61 -97 0 -90 -42 -57 -35 -38 -54 -69 -100 -112 -94 -75 -46 -37 -66 -67 -78 -135 -118 -118 0 0 0 0 0 0 0 -4 -31 -22 -20 -11 -1 -1 -1 -1
-63 -64 -72 -56 -43 -43 -60 -44 -39 -32 -36 -42 -40 -43 -52 -116 -172 -128 -92 -77 -45 -1 -40 -85 -57 -138 -61 -1 0 0 0 0 0 0 0 0 0 -43 -27 -12 -8 -6 -2
-72 -78 -72 -63 -49 -31 -40 -30 -28 -36 -33 -40 -40 -46 -46 -54 -66 -89 -75 -76 -76 -51 -28 -117 -121 -113 -127 -166 -108 0 0 0 0 0 0 0 0 0 0 0 0 -24 -7
-58 -90 -95 -102 -69 -54 -40 -28 -22 -28 -34 -44 -44 -42 -37 -42 -40 -45 -45 -58 -52 -61 -38 -109 -153 -102 -110 -92 -121 0 0 0 0 0 0 0 0 0 0 0 0 0 0
-62 -81 -150 -121 -114 -76 -47 -26 -25 -25 -33 -30 -45 -43 -46 -38 -39 -33 -37 -27 -35 -70 -42 -41 -136 -70 -64 -81 -144 -149 0 0 0 0 0 0 0 0 0 0 0 0 0
-57 -74 -121 -111 0 -129 -43 -42 -29 -23 -32 -47 -61 -92 -58 -41 -33 -42 -39 -35 -39 -47 -66 -49 -93 -45 -39 -62 -93 0 0 0 0 0 0 0 0 0 0 0 0 0 0
-50 -68 -74 -67 -74 -71 -46 -36 -30 -33 -33 -42 -89 -96 -42 -40 -34 -34 -34 -37 -46 -43 -52 -46 -58 -59 -56 -94 0 0 0 0 0 0 0 0 0 0 0 0 0 0 0
-60 -54 -53 -55 -51 -47 -37 -30 -36 -32 -35 -37 -39 -56 -59 -60 -60 -59 -37 -43 -51 -50 -69 -51 -48 -67 -52 -77 -101 0 0 0 0 0 0 0 0 0 0 0 0 0 0
-58 -38 -39 -32 -33 -38 -32 -26 -23 -17 -27 -39 -38 -53 -103 -106 -131 -136 -128 -112 -81 -64 -68 -75 -64 -54 -60 -69 -70 0 0 0 0 0 0 0 0 0 0 0 0 0 0
-91 -125 -52 -31 -30 -38 -33 -22 -19 -25 -23 -30 -35 -59 -114 -181 0 0 0 0 0 0 -97 -109 -89 -95 -102 -107 -109 -97 0 0 0 0 0 0 0 0 0 0 0 0 0
0 -69 -157 -96 -35 -28 -40 -42 -35 -26 -27 -30 -40 -49 -62 -165 0 0 0 0 0 0 0 0 -57 0 0 0 -113 -63 -132 0 0 0 0 0 0 0 0 0 0 0 0
0 0 -170 -178 -66 -57 -107 -117 -91 -63 -47 -48 -72 -62 -65 -111 0 0 0 0 0 0 0 0 0 0 0 0 -133 -147 -136 0 0 0 0 0 0 0 0 0 0 0 0
0 -190 -147 -120 -109 -101 -249 -125 -164 -90 -98 -95 -165 -149 -116 -82 0 0 0 0 0 0 0 0 0 0 0 0 -169 -132 0 0 0 0 0 0 0 0 0 0 0 0 0
Wind_Speed
18 18 16 16 16 15 17 16 19 19 18 12 14 16 20 22 21 18 17 16 17 17 17 14 11 9 10 16 22 24 24 25 24 25 25 26 27 28 29 29 28 28 27
19 15 14 15 15 13 10 13 20 19 18 13 13 15 18 19 20 20 18 15 17 16 16 14 12 10 13 20 23 24 25 26 25 23 25 27 28 28 29 29 28 28 26
20 16 16 12 14 14 17 17 21 22 19 14 15 13 16 18 19 16 16 15 14 13 16 16 14 12 12 19 21 22 24 26 27 27 26 26 27 27 28 29 29 29 28
19 17 14 16 15 15 17 16 17 17 14 14 12 13 16 18 17 16 16 17 17 15 17 17 15 13 12 16 20 22 23 25 25 26 27 27 27 27 28 29 30 30 28
19 16 12 15 15 15 16 15 14 14 13 12 15 15 16 16 18 16 16 17 17 17 17 17 16 14 14 14 17 20 21 23 25 26 25 26 27 27 27 28 29 29 28
20 9 10 14 14 16 16 15 13 13 11 13 15 16 15 16 16 16 18 17 19 17 19 18 16 16 14 14 15 17 18 20 22 24 25 24 26 28 28 28 28 28 27
20 19 16 15 14 15 15 14 14 15 15 16 16 16 15 15 16 17 17 16 18 19 20 18 17 16 15 13 12 14 16 17 19 21 22 23 25 27 28 28 27 27 26
21 20 18 13 13 13 13 13 13 14 16 16 16 17 15 14 16 17 16 17 19 19 18 17 18 17 16 13 11 11 13 14 16 18 20 22 23 26 26 27 27 26 25
19 18 18 11 10 11 12 10 13 15 15 16 16 16 17 17 18 16 17 18 19 18 17 18 17 18 17 14 12 11 11 12 15 17 19 21 23 24 26 26 26 26 26
19 19 18 13 10 10 11 12 11 14 16 17 17 15 15 18 18 17 17 18 17 18 18 18 17 17 17 15 13 12 11 11 13 16 16 19 21 23 24 24 24 24 22
22 21 17 11 10 11 16 15 20 16 15 17 16 15 15 18 17 18 19 18 17 18 17 17 17 17 17 16 14 13 12 10 12 14 15 18 20 22 23 24 21 14 11
24 20 15 8 11 17 20 20 19 18 18 18 17 16 16 16 17 17 17 18 17 16 16 16 16 16 17 16 15 14 13 11 11 12 12 13 14 10 10 13 6 6 7
13 16 11 8 13 17 19 21 22 20 17 17 17 16 15 15 15 15 16 16 15 15 15 15 15 15 16 15 14 14 15 11 15 16 15 13 12 12 10 8 7 7 7
6 9 10 11 14 19 20 24 22 21 10 12 16 15 12 12 14 14 15 14 14 13 14 13 13 14 14 14 14 14 15 16 16 15 14 13 13 12 11 10 9 7 7
23 19 4 7 14 15 20 17 23 22 16 10 10 10 10 3 11 13 13 14 12 12 13 12 12 13 12 13 13 13 14 15 16 16 15 15 14 13 12 11 10 9 7
15 29 29 11 12 22 17 19 25 24 23 19 14 13 11 9 10 9 11 10 10 11 10 10 11 11 12 11 12 12 13 14 15 15 15 15 14 14 14 13 13 11 9
15 26 25 13 10 14 24 23 23 26 25 23 21 13 14 15 11 11 13 12 9 10 11 11 11 11 10 11 12 13 13 13 15 15 15 15 15 15 15 15 15 14 12
17 23 11 12 19 9 9 7 4 19 23 16 17 10 16 14 15 12 12 9 8 10 12 10 10 9 9 10 12 15 15 13 14 15 15 16 17 17 18 17 16 15 14
20 20 25 25 14 2 9 8 2 17 16 14 10 16 11 20 12 8 10 9 9 9 9 9 8 8 8 8 10 12 15 12 13 13 14 16 17 17 17 18 18 16 12
14 17 18 20 24 18 13 9 14 17 16 16 13 14 19 11 7 10 8 7 8 8 9 7 8 8 6 7 8 10 13 15 12 13 13 14 17 18 18 19 19 19 17
20 17 19 21 24 25 25 13 13 13 16 14 13 10 12 13 10 11 10 7 7 8 8 6 6 8 6 5 4 8 12 12 13 14 12 15 17 18 20 19 18 18 17
26 29 27 28 27 24 23 15 15 17 15 13 10 10 11 12 14 14 13 12 8 7 7 7 7 4 5 6 7 7 9 10 12 11 12 15 16 18 20 19 17 16 15
31 28 34 32 28 19 18 20 19 17 14 12 10 9 10 11 11 12 12 13 14 14 12 9 7 7 7 6 7 6 9 8 10 8 10 14 15 17 19 18 16 15 14
13 36 39 37 31 23 16 17 19 19 17 13 10 7 9 9 10 9 11 12 13 15 15 13 11 10 12 11 10 10 9 12 14 9 11 14 16 16 15 16 16 15 14
10 16 42 34 30 25 19 18 18 18 15 13 11 11 8 8 8 7 8 10 12 13 14 14 14 15 15 13 12 11 9 9 15 12 14 13 14 16 17 16 14 16 15
11 11 14 16 27 26 21 20 17 18 15 13 14 13 10 8 6 5 7 8 10 10 11 13 14 17 17 16 14 14 10 11 15 13 11 14 10 14 16 14 14 14 16
Wind_Direction
208 199 96 123 103 87 60 34 351 329 315 246 250 232 188 197 190 178 188 174 165 167 173 154 125 113 139 180 216 217 213 212 203 203 206 206 206 207 209 207 207 209 206
182 138 183 123 91 117 160 139 337 323 311 269 269 241 199 178 189 191 169 144 153 151 159 151 129 86 159 216 236 234 233 226 213 200 206 213 210 207 206 205 204 203 200
185 116 131 118 84 89 55 67 31 44 320 194 124 236 193 159 172 137 141 130 128 111 158 161 152 105 26 295 273 247 238 237 229 223 216 214 212 203 202 204 205 204 201
160 144 92 326 90 90 46 45 82 94 120 139 183 192 172 150 131 130 150 141 142 137 161 171 168 127 134 193 233 257 250 243 228 226 226 217 213 210 202 205 206 203 201
153 148 9 334 24 50 33 83 109 104 122 150 180 164 178 166 160 159 154 155 152 156 162 172 187 160 159 184 216 230 233 241 238 226 214 211 211 212 204 201 202 200 197
172 352 357 339 21 15 4 47 125 126 145 151 155 166 177 189 181 169 160 152 167 172 172 169 179 183 172 194 223 226 227 231 225 228 221 207 205 207 202 206 198 194 192
217 270 302 324 354 359 360 36 69 80 91 128 138 141 171 190 172 171 179 170 173 167 162 167 171 178 176 182 205 220 228 229 220 216 215 221 212 212 200 200 198 194 185
217 211 293 328 349 15 9 35 85 77 135 128 122 115 157 183 177 165 183 163 162 152 155 174 170 171 169 168 186 204 223 224 217 221 218 218 208 202 194 196 196 187 183
194 190 188 104 67 27 8 48 89 125 114 145 139 154 121 149 162 170 157 161 162 163 166 169 165 165 164 164 170 184 200 220 208 218 206 198 206 206 200 194 189 185 184
193 191 180 145 84 70 326 353 46 107 99 107 149 177 171 149 148 154 152 153 162 161 164 174 166 159 158 157 157 171 186 225 221 223 237 213 211 202 195 180 179 171 164
215 211 180 125 104 127 161 151 170 148 115 147 184 167 176 156 151 155 149 146 157 155 157 162 161 154 155 148 148 152 173 223 244 243 253 219 202 203 202 206 163 128 118
225 223 162 94 140 175 183 184 167 176 171 173 179 171 161 144 137 132 147 151 154 156 154 159 152 150 150 144 145 150 147 201 275 291 296 277 266 112 259 257 34 72 87
151 169 135 109 145 176 188 194 215 196 152 173 167 144 117 136 129 115 136 134 147 165 145 155 150 142 137 128 124 121 121 153 333 354 9 349 321 310 338 356 32 62 73
116 132 140 142 155 186 197 199 225 220 335 100 147 141 107 86 85 113 125 109 99 113 142 124 125 133 125 114 101 93 94 71 16 339 340 342 343 347 342 340 359 23 59
199 188 128 147 163 169 188 245 217 228 272 18 75 56 29 78 128 111 97 118 83 104 144 135 105 121 109 99 83 74 69 54 32 17 4 350 343 340 335 338 353 4 21
296 245 248 170 163 191 176 187 229 234 233 279 333 331 353 21 27 59 34 100 100 85 102 94 82 77 97 72 58 47 28 10 6 6 359 349 338 334 331 328 331 343 5
294 210 223 293 295 174 199 269 266 227 249 266 284 227 325 318 6 13 347 7 43 47 43 42 37 54 78 69 41 22 4 355 340 339 344 340 331 327 327 327 322 323 335
287 280 297 298 284 162 154 321 359 282 272 311 296 337 304 326 327 356 359 40 50 29 20 46 40 54 56 71 55 42 4 337 338 332 332 331 328 321 318 320 321 324 327
280 280 272 271 293 271 297 305 328 296 299 317 327 304 303 289 344 25 7 25 10 13 21 30 50 41 44 69 46 47 63 13 346 329 337 337 335 329 327 326 323 324 331
273 276 277 278 274 280 290 297 298 294 296 306 315 309 294 336 6 355 11 28 18 20 8 26 29 21 40 40 42 44 33 33 26 327 341 353 329 329 329 327 326 324 323
274 271 273 274 275 271 273 287 293 297 295 302 309 321 319 323 341 340 350 11 8 3 0 8 7 358 11 33 43 22 11 15 6 347 346 344 330 322 326 330 332 335 341
275 272 271 269 271 273 276 280 284 288 293 294 299 310 315 319 322 325 331 338 349 352 354 354 351 0 357 357 358 6 3 4 356 359 346 338 334 336 333 337 348 345 347
271 274 268 266 269 271 275 276 280 283 286 286 289 298 309 317 326 329 333 336 334 335 338 344 347 345 347 347 348 351 341 349 349 9 353 338 341 341 342 348 353 358 359
279 263 262 263 267 270 270 273 276 278 281 280 280 280 297 309 320 329 332 334 334 331 332 333 337 342 337 341 345 344 339 340 344 356 345 330 337 341 354 356 3 353 350
273 197 256 264 266 267 267 270 273 275 279 279 280 284 292 305 312 321 334 338 338 337 340 341 343 341 340 337 340 346 344 340 333 334 328 331 323 329 331 345 355 355 358
245 234 256 258 262 262 265 267 268 271 272 273 280 287 292 300 297 305 323 332 336 342 344 340 343 335 341 340 338 333 339 329 330 334 332 331 344 340 339 347 351 359 358